This is the latest recevied weather packets stored in our database for station/object KO4LFZ. If no packets are shown the sender has not sent any weather packets the latest 10 day(s).
| Time | Temp. | Humidity | Pressure | Rain* | Wind** | Luminosity | Snow |
|---|---|---|---|---|---|---|---|
| 1778209300 | 11.11° C | 80% | 1016.2 hPa | 0 mm | - | 0 W/m² | - |
| 1778208995 | 10.56° C | 80% | 1016.1 hPa | 0 mm | - | 0 W/m² | - |
| 1778208693 | 10.56° C | 83% | 1016.1 hPa | 0 mm | - | 0 W/m² | - |
| 1778208388 | 10.56° C | 79% | 1016.1 hPa | 0 mm | - | 0 W/m² | - |
| 1778208086 | 10.56° C | 80% | 1016.2 hPa | 0 mm | - | 0 W/m² | - |
| 1778207782 | 11.11° C | 78% | 1016 hPa | 0 mm | - | 0 W/m² | - |
| 1778207480 | 11.11° C | 78% | 1016.1 hPa | 0 mm | - | 0 W/m² | - |
| 1778207176 | 11.11° C | 77% | 1015.9 hPa | 0 mm | - | 0 W/m² | - |
| 1778206873 | 11.67° C | 76% | 1015.7 hPa | 0 mm | - | 0 W/m² | - |
| 1778206568 | 12.22° C | 72% | 1015.7 hPa | 0 mm | - | 0 W/m² | - |
| 1778206265 | 12.78° C | 70% | 1015.7 hPa | 0 mm | - | 0 W/m² | - |
| 1778205963 | 12.22° C | 66% | 1015.6 hPa | 0 mm | - | 0 W/m² | - |
| 1778205660 | 12.78° C | 73% | 1015.3 hPa | 0 mm | - | 0 W/m² | - |
| 1778205357 | 13.33° C | 67% | 1015.6 hPa | 0 mm | - | 0 W/m² | - |
| 1778205054 | 12.22° C | 63% | 1015.6 hPa | 0 mm | - | 0 W/m² | - |
| 1778204750 | 12.22° C | 69% | 1015.5 hPa | 0 mm | - | 0 W/m² | - |
| 1778204447 | 12.22° C | 67% | 1015.5 hPa | 0 mm | - | 0 W/m² | - |
| 1778204143 | 12.22° C | 70% | 1015.8 hPa | 0 mm | - | 0 W/m² | - |
| 1778203840 | 12.78° C | 75% | 1015.7 hPa | 0 mm | - | 0 W/m² | - |
| 1778203537 | 12.78° C | 74% | 1015.5 hPa | 0 mm | - | 0 W/m² | - |
| 1778203235 | 13.33° C | 68% | 1015.6 hPa | 0 mm | - | 0 W/m² | - |
| 1778202933 | 13.89° C | 66% | 1015.6 hPa | 0 mm | - | 0 W/m² | - |
| 1778202630 | 14.44° C | 67% | 1015.5 hPa | 0 mm | - | 0 W/m² | - |
| 1778202326 | 15° C | 59% | 1015.2 hPa | 0 mm | - | 0 W/m² | - |
| 1778202024 | 15° C | 57% | 1015.2 hPa | 0 mm | - | 0 W/m² | - |
* Rain latest hour (hover to see other rain measurements)
** Current wind speed in m/s (hover to see current wind gust speed)